Temperature
21 21 22 21 19 18 20 21 21 21 21 21 21 21 20 19 19 18 18 18 18 18 18 18 18 18 18 18 18 18 18 18 18 18 18 17 18 18 18 18 18 18 18 18 18 18 18 18 18
22 22 22 21 18 19 20 21 21 22 22 22 21 21 20 19 19 18 18 18 18 18 18 18 18 18 18 18 18 18 18 17 17 17 17 17 17 17 17 17 17 17 17 17 17 17 17 17 17
22 22 22 18 19 19 20 21 21 22 23 22 21 21 20 19 19 19 19 18 18 18 18 18 18 18 18 18 18 18 17 17 17 17 17 17 17 17 17 17 17 17 17 17 17 17 17 17 17
22 22 21 18 20 20 21 21 22 22 22 22 21 20 20 19 19 19 19 19 18 18 18 18 18 18 18 18 17 17 17 17 17 17 17 17 17 17 17 17 17 17 17 17 17 17 17 17 17
22 22 19 19 20 21 21 22 23 22 22 21 21 19 19 19 19 19 19 19 19 18 18 18 18 18 18 18 17 17 17 17 17 17 17 17 17 17 17 17 17 17 17 17 17 17 17 17 17
22 19 18 19 20 21 21 22 22 21 21 21 20 19 19 19 19 19 19 19 19 18 18 18 18 18 18 18 17 17 17 17 17 17 17 17 17 17 17 17 17 17 17 17 17 17 17 17 16
21 18 19 19 20 21 22 22 22 21 21 21 21 19 19 19 19 19 19 19 19 19 18 18 18 18 18 18 17 17 17 17 17 17 17 17 17 17 17 17 17 17 17 16 16 16 16 16 16
23 18 19 19 20 21 22 22 22 22 21 21 21 19 19 19 19 19 19 19 19 19 18 18 18 18 18 17 17 17 17 17 17 17 17 17 17 17 17 17 17 17 16 16 16 16 16 16 16
23 18 18 20 20 21 22 22 22 22 22 21 21 21 20 20 19 19 19 19 19 18 18 18 18 18 18 17 17 17 17 17 17 17 17 16 16 16 16 16 16 16 16 16 16 16 16 16 16
21 18 19 20 20 21 22 22 22 21 21 20 20 20 20 20 19 19 19 19 19 18 18 18 18 18 18 17 17 17 17 17 17 17 16 16 16 16 16 16 16 16 16 16 16 16 16 16 16
21 19 20 21 22 22 22 21 22 21 19 20 20 20 20 20 19 19 19 19 19 19 18 18 18 18 18 17 17 17 17 17 16 16 16 16 16 16 16 16 16 16 16 16 16 16 16 16 16
21 21 22 22 22 22 22 21 21 21 21 21 21 20 20 19 19 19 19 19 19 19 18 18 18 18 18 17 17 17 17 17 16 16 16 16 16 16 16 16 16 16 16 16 16 16 15 15 15
21 21 22 22 22 22 22 21 21 21 21 21 20 20 20 19 19 19 19 19 19 19 18 18 18 18 18 17 17 17 17 17 16 16 16 16 16 16 16 16 16 16 15 15 15 15 15 15 15
22 22 22 22 22 22 21 21 20 20 20 20 20 20 20 20 19 19 19 19 19 19 18 18 18 18 18 17 17 17 17 16 16 16 16 16 16 16 16 15 15 15 15 15 15 15 15 15 15
22 21 20 21 21 21 21 19 19 20 20 20 20 19 19 19 19 19 19 19 19 19 18 18 18 18 17 17 17 17 16 16 16 16 16 16 16 16 16 15 15 15 15 15 15 15 15 15 15
21 20 19 20 21 21 20 18 19 20 20 19 19 19 19 19 19 19 19 19 19 19 18 18 18 18 17 17 17 17 16 16 16 16 16 16 15 15 15 15 15 15 15 15 15 15 15 15 15
19 19 19 20 21 20 19 18 18 20 19 19 19 19 19 19 19 19 19 19 19 19 18 18 18 17 17 17 17 16 16 16 16 16 16 15 15 15 15 15 15 15 15 15 15 15 15 15 14
19 19 19 19 20 20 19 18 18 19 19 19 19 19 19 19 19 19 19 19 19 18 18 18 18 17 17 17 17 16 16 16 16 15 15 15 15 15 15 15 15 14 14 14 14 14 14 14 14
20 20 19 19 20 19 18 18 18 18 18 18 18 18 19 19 19 19 19 19 19 18 18 18 18 17 17 17 16 16 16 16 15 15 15 15 15 15 15 14 14 14 14 14 14 14 14 14 14
20 19 19 19 20 19 18 18 18 18 18 18 18 18 18 18 18 18 18 19 18 18 18 18 17 17 17 16 16 16 16 15 15 15 15 15 14 14 14 14 14 14 14 14 14 14 14 14 14
20 19 19 19 19 19 18 17 17 17 18 18 18 18 18 18 18 18 18 18 18 18 18 17 17 17 17 16 16 16 16 15 15 15 15 14 14 14 14 14 14 14 14 14 14 14 14 14 14
20 20 20 19 18 17 18 16 16 16 16 16 17 17 18 18 18 18 18 18 18 17 17 17 17 17 16 16 16 16 15 15 15 15 15 14 14 14 14 14 14 14 14 14 14 13 13 13 13
20 20 20 19 18 17 17 16 16 16 16 16 16 17 17 18 18 17 17 17 17 17 17 17 17 16 16 16 16 16 15 15 15 15 14 14 14 14 14 13 13 13 13 13 13 13 13 13 13
20 19 18 16 16 16 17 16 16 15 16 16 16 17 17 17 17 17 17 17 17 16 16 16 16 16 15 15 15 15 15 15 15 14 14 14 14 14 13 13 13 13 13 13 13 13 13 13 13
19 17 16 16 15 16 16 16 16 16 17 17 16 16 17 17 17 17 17 16 16 16 16 16 15 15 15 15 15 15 14 14 14 14 14 13 13 13 13 13 13 13 13 13 13 13 13 13 13
19 17 16 16 16 15 16 16 16 17 17 17 17 16 16 16 16 16 16 16 16 16 15 15 15 15 15 15 14 14 14 14 14 13 13 13 13 13 13 13 13 13 13 13 13 13 13 12 12
19 17 16 15 16 15 15 15 16 16 16 16 16 16 16 16 16 16 16 16 16 15 15 15 15 15 14 14 14 14 14 13 13 13 13 13 13 13 13 13 12 12 12 12 12 12 12 12 12
19 18 15 15 15 15 15 15 15 16 15 15 15 15 15 16 16 16 15 15 15 15 15 15 15 14 14 14 14 13 13 13 13 13 13 13 12 12 12 12 12 12 12 12 12 12 12 12 12
18 18 16 14 14 14 14 15 16 15 15 14 14 15 15 15 15 15 15 15 15 15 14 14 14 14 14 14 13 13 13 13 13 13 12 12 12 12 12 12 12 12 12 12 11 12 11 12 11
18 17 16 15 15 13 13 14 16 15 15 15 15 15 15 15 15 15 15 14 14 14 14 14 14 14 14 13 13 13 13 13 12 12 12 12 12 12 11 12 12 11 11 11 11 11 11 11 11
Wind_Speed
3 2 2 3 5 5 4 2 3 5 5 5 8 9 8 6 4 4 3 5 7 6 7 8 10 10 11 11 11 11 11 11 12 12 11 12 12 12 11 11 10 10 9 9 9 9 8 8 8
2 1 4 5 5 4 2 2 6 5 6 7 8 8 7 6 4 6 3 5 8 7 8 9 10 11 11 11 11 11 11 11 11 11 11 11 12 12 11 11 10 10 9 9 9 8 8 8 8
1 1 4 4 4 3 3 2 6 5 6 5 5 5 5 4 4 4 5 7 7 7 9 10 11 11 11 11 11 11 11 11 11 11 10 10 11 11 11 11 10 10 10 9 9 8 8 8 8
3 4 5 6 4 1 4 4 5 6 6 6 6 6 4 3 4 5 8 9 9 7 9 11 12 11 12 11 11 11 11 11 11 10 10 10 11 10 10 10 10 10 10 10 10 9 8 8 8
4 5 6 5 3 1 2 4 5 6 4 5 7 6 4 3 6 10 11 10 10 7 8 11 12 11 11 11 11 11 11 11 11 11 10 10 10 10 9 9 9 10 10 10 10 9 9 9 9
4 5 5 3 3 2 3 5 7 9 7 6 7 6 2 2 7 9 10 9 9 8 7 9 10 10 10 10 10 10 10 10 10 10 10 10 10 9 9 9 9 9 9 9 9 8 9 9 9
5 4 3 3 3 3 3 4 6 6 6 4 5 6 3 2 5 8 9 9 8 7 6 6 7 8 9 9 9 9 9 9 9 9 9 8 9 9 8 8 9 9 8 8 8 8 8 8 9
5 5 3 2 4 1 2 4 5 6 4 4 5 7 5 6 6 8 8 7 7 6 5 5 5 6 6 6 7 8 8 8 8 8 8 8 8 8 8 7 8 8 7 7 6 6 7 8 9
4 5 2 2 3 2 3 5 3 4 6 4 4 4 6 9 8 8 6 5 5 5 4 4 4 4 5 6 6 6 6 6 6 6 7 7 6 5 6 6 7 7 7 6 6 6 7 7 8
5 4 3 3 4 4 5 5 3 5 7 5 5 6 8 9 9 8 7 6 6 6 5 4 3 4 5 5 4 3 3 3 4 4 4 4 4 4 5 5 6 7 7 7 7 7 7 6 5
4 5 3 2 4 5 5 3 3 6 3 5 7 7 8 8 7 7 6 6 6 6 6 5 5 5 4 3 4 2 2 2 2 2 4 4 4 3 3 3 4 5 6 5 6 6 5 4 4
4 3 4 3 3 4 4 3 3 4 4 6 9 9 8 9 8 7 6 5 4 5 5 5 6 5 4 4 3 3 2 2 2 2 4 4 3 2 2 2 2 3 3 3 4 4 4 4 4
3 2 3 5 6 5 5 4 3 2 3 5 7 9 9 9 7 6 6 5 5 5 4 5 5 5 4 4 2 3 2 2 2 3 4 5 3 2 2 2 2 3 3 3 3 4 4 4 5
3 4 3 4 4 4 5 2 2 3 5 7 7 7 7 7 7 5 4 4 4 5 5 5 5 5 4 3 2 2 2 2 3 3 4 5 4 3 2 2 3 3 3 3 3 4 4 3 4
4 4 3 1 2 2 5 2 2 5 6 7 6 5 5 5 5 5 5 6 6 5 5 5 6 5 5 4 2 2 3 3 3 3 5 5 5 5 4 3 2 3 4 4 4 5 5 4 5
3 3 0 3 2 2 5 3 4 4 7 6 5 4 5 4 5 5 5 5 5 5 5 5 6 5 5 4 3 3 3 4 3 4 5 5 5 6 5 3 2 3 5 5 3 4 4 4 4
2 1 3 3 2 3 4 3 4 4 7 6 5 4 5 4 3 3 5 6 6 6 6 6 5 5 4 4 4 4 4 4 4 4 4 5 5 6 6 4 3 4 4 4 3 4 3 3 3
3 3 2 3 2 4 3 3 3 3 5 6 5 4 4 4 4 3 4 5 5 5 5 6 5 5 5 4 3 3 3 3 4 4 3 4 5 6 5 4 3 4 3 3 3 4 4 3 2
5 3 2 3 3 2 3 3 3 3 3 4 4 5 5 4 3 2 4 5 5 4 5 5 5 4 4 3 3 2 2 1 1 2 4 4 4 4 4 3 3 3 3 3 3 3 4 3 2
2 2 1 1 1 2 2 3 3 3 6 7 6 6 5 4 1 2 3 4 5 5 4 4 4 4 4 3 3 3 2 1 1 2 3 4 4 3 3 3 2 2 2 3 3 3 2 1 2
1 4 4 3 2 1 2 3 3 3 2 3 4 5 6 6 5 4 3 3 4 4 4 5 4 4 4 4 3 3 2 2 2 2 1 2 2 3 3 3 3 2 2 2 2 3 3 1 1
2 3 4 3 1 3 2 3 6 4 2 3 3 4 5 4 4 4 4 4 3 3 3 4 4 4 4 5 5 6 4 2 2 1 1 1 1 2 3 2 3 3 2 2 2 2 2 2 1
5 3 2 3 2 1 2 3 6 2 3 5 5 5 5 5 5 4 4 4 4 3 3 3 4 3 3 4 5 5 3 2 1 0 1 1 1 1 2 2 2 1 2 2 1 1 1 1 2
1 4 4 4 4 2 5 5 6 5 7 6 6 6 5 5 4 4 3 3 3 2 3 3 4 3 2 3 3 4 4 3 2 1 0 1 1 1 1 1 1 0 1 2 2 2 2 2 1
5 6 4 4 3 5 3 3 6 6 6 7 7 6 5 5 5 4 3 3 3 3 3 3 4 3 3 3 3 3 4 4 3 3 2 1 0 1 2 1 0 0 1 1 1 2 2 2 2
2 7 5 3 4 5 4 3 5 4 2 5 6 5 5 5 5 5 4 4 3 3 3 3 3 3 3 3 2 2 3 3 2 3 3 3 2 3 2 1 1 1 0 1 1 1 2 2 2
3 3 6 5 2 3 4 4 5 2 3 3 4 4 4 4 5 5 4 4 3 2 3 4 4 3 2 3 2 2 2 2 2 2 3 2 2 2 2 2 1 1 1 1 1 1 2 2 2
4 5 4 3 2 4 5 4 5 4 3 3 4 4 4 4 4 4 4 3 2 2 2 4 4 4 3 3 2 2 2 2 2 2 3 3 3 2 2 2 2 2 1 2 2 2 1 1 2
1 2 3 3 4 4 4 6 5 7 7 6 5 5 5 5 5 5 4 3 2 1 1 3 3 3 2 2 2 1 1 2 1 2 3 4 3 3 3 3 3 2 2 2 2 2 2 1 2
4 5 5 4 4 4 3 7 5 4 5 5 5 4 4 4 4 5 4 3 2 1 1 2 2 2 3 3 2 2 2 2 2 2 3 3 4 4 4 3 3 3 3 3 3 3 2 3 2
Wind_Direction
300 340 89 62 56 57 60 49 106 75 63 61 70 80 84 71 88 127 209 154 143 143 131 110 101 97 93 88 84 81 79 78 78 79 78 78 78 78 79 81 81 84 89 91 93 92 90 87 83
357 33 64 58 78 77 47 84 92 95 130 115 78 77 77 69 83 117 134 143 140 139 133 116 109 104 96 91 86 84 83 79 77 77 78 79 80 81 80 81 83 84 89 90 91 90 86 81 79
341 58 78 66 80 124 134 130 111 102 101 97 84 63 77 107 113 138 156 140 125 127 127 119 113 105 97 92 88 85 84 80 77 75 76 78 81 83 84 83 83 83 86 85 87 86 84 80 75
61 44 56 73 80 135 149 155 128 102 71 63 95 69 64 98 141 142 137 129 118 119 126 122 115 106 99 94 89 85 83 79 77 76 79 80 81 83 86 85 84 84 86 86 87 85 83 78 72
67 70 64 70 78 60 103 116 95 90 79 77 90 90 58 25 106 125 131 129 125 122 129 123 119 112 104 96 91 86 83 80 78 78 81 84 82 79 82 84 85 87 89 89 88 89 88 82 75
52 66 80 87 89 70 73 90 85 87 100 99 96 101 87 92 113 132 134 133 132 132 133 130 125 119 109 99 94 90 85 83 83 80 81 82 80 78 83 85 86 89 89 88 86 88 89 82 77
101 88 113 126 105 78 111 96 91 102 105 114 120 103 113 127 145 140 136 131 132 133 131 133 134 126 116 106 100 95 88 84 82 81 82 82 80 78 78 83 85 88 89 86 84 83 84 78 80
124 102 82 90 110 100 96 79 90 98 103 117 109 126 157 180 161 134 129 126 131 132 136 139 139 129 125 120 109 104 94 87 81 78 80 83 80 79 78 80 81 79 79 80 85 86 81 80 84
89 84 107 163 137 146 103 87 70 74 89 71 77 121 152 145 132 117 113 114 136 145 152 150 141 140 139 134 121 113 101 91 81 74 79 84 80 80 77 74 75 72 66 74 82 87 82 84 82
86 122 184 181 157 139 107 100 108 77 75 67 66 78 109 122 128 129 138 152 161 167 170 161 153 156 155 145 130 123 112 95 84 74 75 84 86 83 76 73 67 63 59 71 80 84 78 72 74
118 152 159 127 134 120 105 84 76 114 111 149 146 144 136 132 136 144 154 164 172 171 168 169 165 164 159 146 138 134 121 107 96 82 84 95 97 82 71 65 54 49 52 53 58 60 57 62 74
117 151 143 138 130 118 119 115 87 119 173 166 154 148 138 136 143 150 152 158 148 146 162 172 163 155 155 142 142 132 115 114 106 103 98 107 99 83 87 75 51 39 38 40 47 58 56 57 73
105 129 105 108 99 108 103 113 120 144 159 145 135 131 140 148 156 162 158 145 124 125 140 158 154 152 155 145 140 122 115 113 114 102 110 117 106 97 86 63 55 40 39 51 48 52 52 62 71
146 122 113 109 110 119 113 113 105 187 144 127 131 138 147 153 158 145 137 135 138 145 140 133 132 136 135 143 148 146 133 116 93 89 107 116 112 100 87 69 54 48 52 66 76 68 67 67 69
110 89 50 113 137 161 114 59 186 195 141 134 144 146 149 158 150 152 170 164 160 153 141 136 138 124 123 128 132 115 107 100 87 92 103 106 103 99 91 78 65 56 64 70 73 67 67 66 61
66 73 100 258 166 184 129 207 250 179 138 147 156 163 155 164 164 169 168 162 159 143 133 138 130 119 122 122 105 93 90 86 84 97 99 102 104 105 98 88 77 69 71 67 72 65 64 55 55
41 143 216 270 217 163 146 203 244 184 146 157 168 174 162 164 173 179 164 158 158 149 141 132 121 125 127 116 100 94 85 82 83 93 93 101 104 101 98 91 79 79 73 63 67 64 72 66 54
210 194 220 241 256 130 146 208 222 197 159 177 185 176 167 171 195 177 160 153 144 142 137 133 127 121 121 113 93 80 72 71 68 70 78 99 102 104 101 93 80 79 78 62 65 73 64 73 70
179 180 225 247 213 147 180 205 224 210 184 188 196 188 178 182 200 158 149 143 129 121 123 129 128 125 118 122 122 114 106 89 70 61 68 83 92 107 106 99 85 80 90 93 85 80 77 59 59
153 149 249 300 306 148 183 240 242 214 199 194 192 190 179 168 140 122 132 128 132 129 132 133 140 142 138 143 155 157 157 155 133 61 55 71 80 98 116 115 115 111 107 91 78 83 83 57 68
205 179 201 223 337 43 102 318 286 281 223 203 193 183 175 165 170 167 142 134 135 139 148 149 158 150 142 135 122 106 82 57 55 43 21 24 74 81 94 126 129 122 130 143 138 117 114 114 354
236 224 191 187 127 255 161 253 267 242 212 211 207 180 181 174 163 164 153 142 143 160 152 144 149 144 144 137 134 134 136 153 206 209 214 331 55 82 91 103 137 142 148 165 184 151 140 141 168
215 227 210 215 186 275 253 201 269 227 217 225 213 189 181 174 160 156 160 164 161 155 130 127 132 131 143 143 146 146 143 171 165 98 73 346 354 45 64 75 111 164 171 184 184 163 142 148 171
143 40 23 47 77 279 241 191 256 224 210 205 204 190 174 166 152 145 145 135 130 132 125 121 120 126 128 134 147 150 152 150 123 98 76 318 329 351 19 56 79 122 171 198 202 188 186 188 172
68 74 25 356 356 257 274 193 246 239 206 189 184 187 175 162 150 145 142 128 122 128 132 125 131 126 133 134 155 164 163 166 173 181 187 196 279 299 271 8 350 353 199 175 169 179 207 196 183
156 136 156 211 244 282 322 240 260 265 203 159 154 158 156 160 163 159 163 159 142 141 145 135 130 129 139 142 151 157 158 171 191 199 190 194 214 232 234 221 230 240 239 183 140 182 212 199 204
150 178 172 158 244 268 279 287 306 10 66 107 132 143 159 171 175 169 163 158 148 139 163 158 146 142 158 161 152 144 172 179 192 200 193 201 220 228 217 216 235 236 240 227 194 206 231 204 207
170 160 101 127 210 267 282 262 236 216 195 185 179 181 189 193 190 176 171 166 160 154 168 161 154 164 178 175 166 156 198 207 213 200 199 208 218 222 221 228 232 228 243 220 202 222 234 200 216
155 130 129 145 173 184 261 270 233 203 195 189 196 195 189 199 202 184 174 175 172 153 140 157 165 162 175 183 182 182 215 231 229 216 220 218 217 213 215 228 224 219 234 235 213 229 214 208 230
184 183 156 171 238 196 207 265 282 195 186 182 190 192 190 190 194 189 176 167 160 155 175 186 194 190 199 193 192 205 223 234 228 239 237 227 226 227 222 224 218 224 237 232 213 218 216 216 227
Height
1504 1504 1504 1505 1509 1520 1522 1517 1511 1511 1511 1512 1511 1512 1515 1519 1522 1529 1525 1523 1523 1522 1522 1522 1521 1520 1520 1519 1518 1518 1517 1517 1516 1515 1514 1514 1513 1513 1513 1513 1512 1512 1512 1512 1512 1512 1513 1513 1513
1504 1505 1506 1506 1517 1530 1526 1515 1513 1511 1512 1512 1513 1515 1517 1520 1522 1523 1523 1524 1523 1522 1522 1523 1522 1521 1521 1520 1520 1519 1518 1518 1517 1516 1516 1515 1514 1514 1514 1513 1513 1513 1513 1513 1513 1513 1513 1513 1513
1505 1505 1507 1510 1520 1527 1523 1515 1512 1511 1511 1512 1515 1517 1519 1522 1523 1524 1524 1524 1523 1522 1523 1523 1523 1523 1522 1522 1521 1520 1520 1519 1518 1517 1517 1516 1515 1515 1514 1514 1513 1513 1513 1513 1513 1513 1513 1513 1513
1506 1507 1508 1516 1522 1518 1515 1513 1511 1512 1513 1514 1515 1520 1522 1524 1524 1524 1525 1525 1524 1524 1524 1525 1524 1524 1524 1523 1523 1522 1521 1520 1519 1518 1518 1517 1516 1515 1515 1514 1514 1514 1514 1513 1513 1514 1514 1514 1514
1506 1507 1515 1523 1521 1516 1512 1511 1511 1512 1514 1517 1517 1521 1524 1526 1525 1525 1526 1526 1526 1526 1526 1526 1526 1526 1525 1525 1524 1523 1522 1522 1520 1520 1519 1518 1517 1517 1516 1515 1515 1514 1514 1514 1514 1514 1514 1514 1514
1507 1509 1523 1528 1522 1516 1514 1513 1512 1515 1517 1518 1519 1522 1526 1527 1526 1527 1528 1528 1528 1528 1528 1528 1528 1527 1527 1526 1525 1524 1524 1523 1522 1521 1520 1519 1519 1518 1517 1516 1516 1515 1514 1514 1514 1514 1514 1515 1515
1509 1515 1523 1524 1523 1519 1516 1514 1515 1516 1518 1519 1520 1523 1526 1528 1528 1528 1529 1529 1529 1529 1529 1529 1529 1528 1528 1527 1526 1526 1525 1524 1523 1522 1521 1521 1520 1519 1518 1517 1517 1516 1515 1514 1514 1514 1515 1515 1516
1509 1515 1522 1524 1523 1521 1516 1515 1516 1517 1519 1521 1521 1523 1526 1528 1528 1529 1530 1530 1530 1530 1530 1530 1530 1529 1529 1528 1527 1527 1526 1525 1524 1523 1523 1522 1521 1520 1519 1519 1518 1516 1515 1513 1513 1514 1515 1516 1517
1509 1519 1526 1523 1521 1520 1516 1516 1518 1519 1520 1521 1522 1523 1525 1527 1529 1530 1530 1531 1531 1531 1531 1531 1531 1530 1530 1529 1529 1528 1527 1526 1525 1525 1524 1523 1522 1522 1521 1520 1519 1517 1514 1511 1511 1514 1516 1517 1518
1510 1522 1521 1516 1516 1517 1516 1517 1519 1521 1521 1523 1523 1525 1526 1527 1528 1529 1530 1530 1530 1531 1531 1531 1531 1531 1531 1530 1530 1529 1528 1527 1527 1526 1525 1524 1523 1523 1522 1521 1520 1518 1515 1512 1513 1515 1518 1518 1519
1511 1517 1515 1515 1515 1515 1517 1519 1520 1521 1524 1524 1524 1525 1526 1527 1528 1529 1529 1530 1530 1531 1531 1531 1531 1531 1531 1531 1530 1530 1529 1528 1528 1527 1526 1525 1525 1524 1523 1522 1522 1520 1518 1517 1517 1518 1519 1519 1520
1512 1513 1513 1515 1515 1516 1517 1519 1520 1521 1523 1524 1524 1525 1526 1527 1528 1528 1529 1530 1530 1531 1531 1531 1532 1532 1531 1531 1531 1530 1530 1529 1528 1528 1527 1527 1526 1525 1524 1524 1523 1522 1521 1520 1520 1520 1520 1521 1521
1513 1514 1514 1515 1515 1516 1518 1519 1521 1522 1523 1524 1524 1525 1526 1527 1528 1528 1529 1530 1530 1530 1531 1531 1532 1532 1532 1532 1531 1531 1530 1530 1529 1529 1528 1528 1527 1526 1526 1525 1525 1524 1523 1522 1521 1522 1522 1522 1522
1513 1514 1515 1515 1516 1517 1518 1520 1522 1523 1523 1524 1524 1525 1526 1527 1527 1528 1529 1529 1529 1530 1530 1531 1531 1532 1532 1532 1531 1531 1531 1531 1530 1529 1529 1529 1528 1527 1527 1526 1526 1525 1525 1524 1524 1524 1524 1524 1524
1513 1516 1517 1516 1516 1517 1519 1524 1522 1522 1523 1523 1524 1525 1526 1526 1527 1527 1528 1528 1529 1529 1530 1530 1531 1531 1532 1532 1532 1531 1531 1531 1530 1530 1530 1529 1529 1528 1528 1527 1527 1527 1526 1525 1525 1525 1525 1524 1524
1515 1520 1526 1519 1517 1518 1522 1531 1522 1522 1522 1523 1524 1525 1525 1526 1526 1527 1528 1528 1529 1529 1529 1530 1530 1531 1531 1531 1531 1531 1531 1531 1531 1530 1530 1529 1529 1529 1528 1528 1527 1527 1527 1526 1526 1525 1525 1525 1525
1523 1529 1528 1522 1516 1517 1522 1527 1522 1521 1521 1522 1523 1524 1524 1525 1526 1527 1527 1527 1528 1528 1528 1529 1529 1530 1530 1530 1531 1531 1531 1530 1531 1531 1530 1530 1529 1529 1528 1528 1527 1527 1527 1526 1526 1526 1525 1525 1525
1528 1528 1526 1525 1518 1518 1522 1525 1522 1521 1520 1521 1522 1522 1523 1524 1525 1525 1526 1527 1527 1527 1527 1528 1528 1529 1529 1530 1530 1530 1530 1530 1530 1530 1530 1530 1529 1529 1528 1528 1528 1527 1527 1527 1526 1526 1526 1526 1526
1518 1522 1526 1522 1516 1519 1523 1524 1522 1520 1520 1520 1520 1521 1522 1523 1524 1524 1525 1525 1526 1526 1526 1526 1527 1527 1528 1528 1529 1529 1529 1529 1529 1529 1530 1529 1529 1529 1528 1528 1528 1527 1527 1527 1526 1526 1526 1526 1526
1517 1523 1525 1521 1516 1519 1523 1524 1520 1518 1518 1518 1518 1518 1519 1521 1522 1522 1523 1524 1524 1524 1525 1525 1526 1526 1526 1527 1527 1528 1528 1528 1529 1529 1529 1529 1528 1528 1528 1528 1527 1527 1527 1527 1527 1526 1526 1526 1527
1517 1521 1523 1523 1519 1519 1523 1528 1523 1519 1517 1517 1517 1517 1518 1518 1519 1521 1521 1522 1522 1523 1523 1523 1524 1525 1525 1526 1527 1527 1528 1528 1527 1527 1527 1528 1528 1527 1527 1527 1527 1527 1526 1526 1526 1526 1526 1526 1527
1520 1513 1515 1518 1525 1531 1527 1540 1527 1520 1518 1516 1516 1515 1516 1517 1518 1519 1519 1520 1521 1521 1522 1522 1523 1523 1524 1525 1525 1525 1525 1525 1525 1526 1526 1526 1526 1526 1526 1526 1526 1526 1525 1525 1526 1526 1526 1526 1526
1513 1509 1512 1516 1522 1530 1528 1536 1530 1520 1520 1517 1515 1514 1515 1515 1516 1517 1518 1518 1519 1520 1521 1521 1522 1522 1523 1523 1523 1523 1524 1524 1525 1525 1525 1524 1524 1524 1524 1524 1524 1524 1524 1524 1524 1524 1525 1525 1525
1508 1512 1515 1521 1528 1538 1529 1533 1531 1521 1515 1513 1513 1513 1513 1514 1515 1516 1517 1517 1518 1518 1519 1519 1520 1520 1521 1522 1522 1522 1522 1522 1522 1522 1522 1522 1522 1522 1522 1522 1522 1522 1522 1522 1522 1523 1523 1523 1523
1512 1526 1540 1541 1546 1541 1526 1528 1526 1511 1507 1508 1509 1511 1512 1513 1514 1514 1515 1515 1516 1516 1516 1517 1518 1519 1519 1520 1521 1520 1520 1520 1520 1520 1520 1520 1520 1520 1520 1520 1520 1519 1519 1520 1520 1520 1521 1521 1521
1515 1523 1541 1549 1548 1540 1527 1528 1520 1507 1505 1505 1507 1509 1511 1512 1512 1513 1514 1514 1515 1515 1515 1516 1516 1517 1517 1518 1518 1518 1519 1519 1519 1519 1518 1518 1518 1517 1518 1518 1517 1517 1517 1517 1517 1518 1518 1518 1519
1515 1521 1522 1535 1537 1540 1534 1525 1515 1508 1507 1507 1507 1508 1509 1510 1511 1511 1512 1513 1513 1513 1514 1514 1514 1515 1515 1516 1516 1516 1517 1516 1516 1516 1516 1516 1516 1515 1515 1515 1515 1515 1515 1515 1515 1515 1515 1516 1516
1508 1514 1526 1534 1542 1545 1535 1529 1523 1513 1511 1509 1508 1508 1509 1509 1510 1510 1511 1511 1511 1512 1512 1513 1512 1512 1513 1513 1514 1514 1514 1514 1514 1514 1513 1513 1513 1513 1512 1512 1512 1512 1512 1512 1512 1512 1512 1513 1513
1512 1515 1521 1531 1535 1543 1543 1532 1507 1506 1505 1507 1507 1507 1507 1508 1508 1508 1509 1510 1510 1510 1510 1511 1510 1510 1511 1511 1511 1511 1511 1511 1511 1511 1510 1510 1510 1510 1509 1509 1509 1509 1509 1509 1509 1509 1510 1510 1510
1507 1512 1519 1532 1534 1534 1538 1529 1502 1502 1502 1504 1505 1505 1505 1506 1506 1507 1507 1507 1508 1508 1508 1508 1508 1508 1508 1508 1508 1508 1508 1508 1508 1507 1507 1507 1507 1507 1506 1506 1506 1506 1506 1506 1506 1506 1506 1506 1507